Weather History for KADM - May, 2013

Change the Weather History Date:

Sunday, May 12, 2013

  Actual Average Record
Temperature  
Mean Temperature 56 °F -  
Max Temperature 82 °F 78 °F 89 °F (1998)
Min Temperature 44 °F 59 °F 41 °F (2008)
Degree Days  
Heating Degree Days 8    
Growing Degree Days 6 (Base 50)    
Moisture  
Dew Point 40 °F    
Average Humidity 62    
Maximum Humidity 79    
Minimum Humidity 23    
Precipitation  
Precipitation 0.00 in - - ()
Sea Level Pressure  
Sea Level Pressure 30.23 in    
Wind  
Wind Speed 5 mph (North)    
Max Wind Speed 8 mph    
Max Gust Speed -    
Visibility 10 miles    
Events      
Averages and records for this station are not official NWS values.
T = Trace of Precipitation, MM = Missing Value Source: NWS Daily Summary

Daily Weather History Graph

Daily Weather History Graph

Search for Another Location

Airport or City:

Trip Planner

Search our weather history database for the weather conditions in past years. The results will help you decide how hot, cold, wet, or windy it might be!

Date:

Astronomy

May. 12, 2013 Rise Set
Actual Time 6:28 AM CDT 8:21 PM CDT
Civil Twilight 6:00 AM CDT 8:48 PM CDT
Nautical Twilight 5:27 AM CDT 9:22 PM CDT
Astronomical Twilight 4:51 AM CDT 9:57 PM CDT
Moon 8:25 AM CDT (5/12) 10:47 PM CDT (5/12)
Length of Visible Light 14h 48m
Length of Day
13h 53m
Waxing Crescent, 7% of the Moon is Illuminated
May 12
Waxing Crescent
May 17
First Quarter
May 24
Full
May 31
Last Quarter
Jun 8
New

Hourly Weather History & Observations

Time (CDT) Temp. Dew Point Humidity Pressure Visibility Wind Dir Wind Speed Gust Speed Precip Events Conditions
12:15 AM 57.7 °F 46.0 °F 65% 30.22 in 10.0 mi NNE 6.9 mph - N/A   Clear
12:35 AM 57.2 °F 45.3 °F 65% 30.23 in 10.0 mi NNE 8.1 mph - N/A   Clear
12:55 AM 58.1 °F 42.1 °F 55% 30.23 in 10.0 mi NNE 8.1 mph - N/A   Clear
1:15 AM 58.1 °F 39.9 °F 51% 30.23 in 10.0 mi North 4.6 mph - N/A   Clear
1:35 AM 56.7 °F 39.2 °F 52% 30.23 in 10.0 mi Calm Calm - N/A   Clear
1:55 AM 54.9 °F 38.5 °F 54% 30.23 in 10.0 mi North 3.5 mph - N/A   Clear
2:15 AM 54.9 °F 38.3 °F 54% 30.24 in 10.0 mi WNW 3.5 mph - N/A   Clear
2:35 AM 52.9 °F 38.8 °F 59% 30.23 in 10.0 mi North 8.1 mph - N/A   Clear
2:55 AM 54.1 °F 39.4 °F 57% 30.23 in 10.0 mi North 6.9 mph - N/A   Clear
3:15 AM 51.1 °F 41.4 °F 69% 30.24 in 10.0 mi NW 6.9 mph - N/A   Clear
3:35 AM 50.0 °F 41.4 °F 72% 30.25 in 10.0 mi NW 6.9 mph - N/A   Clear
3:55 AM 49.5 °F 41.2 °F 73% 30.24 in 10.0 mi NNW 6.9 mph - N/A   Clear
4:35 AM 48.6 °F 40.1 °F 73% 30.24 in 10.0 mi NNW 3.5 mph - N/A   Clear
4:55 AM 47.8 °F 39.6 °F 73% 30.25 in 10.0 mi NW 6.9 mph - N/A   Clear
5:15 AM 47.7 °F 40.1 °F 75% 30.25 in 10.0 mi NNW 5.8 mph - N/A   Clear
5:35 AM 47.8 °F 40.5 °F 76% 30.24 in 10.0 mi NNW 3.5 mph - N/A   Clear
5:55 AM 47.7 °F 39.0 °F 72% 30.24 in 10.0 mi Calm Calm - N/A   Clear
6:15 AM 45.5 °F 38.1 °F 75% 30.24 in 10.0 mi Calm Calm - N/A   Clear
6:35 AM 44.8 °F 38.5 °F 79% 30.24 in 10.0 mi Calm Calm - N/A   Clear
6:55 AM 44.6 °F 37.4 °F 76% 30.25 in 10.0 mi Calm Calm - N/A   Clear
8:55 AM 62.6 °F 39.2 °F 42% 30.26 in 10.0 mi ESE 5.8 mph - N/A   Clear
11:55 AM 69.8 °F 30.2 °F 23% 30.26 in 10.0 mi SE 6.9 mph - N/A   Clear
11:35 PM 58.1 °F 38.3 °F 48% 30.15 in 10.0 mi Calm Calm - N/A   Clear
11:55 PM 57.6 °F 38.5 °F 49% 30.15 in 10.0 mi ESE 3.5 mph - N/A   Clear